This is the latest recevied weather packets stored in our database for station/object SP1BMW-13. If no packets are shown the sender has not sent any weather packets the latest 10 day(s).
| Time | Temp. | Humidity | Pressure | Rain* | Wind** | Luminosity | Snow |
|---|---|---|---|---|---|---|---|
| 1787862436 | 19.44° C | 54% | 1016.9 hPa | 0 mm | 0.89 m/s, 53° | 0 W/m² | - |
| 1787862376 | 19.44° C | 53% | 1017.1 hPa | 0 mm | 1.79 m/s, 75° | 0 W/m² | - |
| 1787862315 | 19.44° C | 54% | 1016.8 hPa | 0 mm | 0 m/s | 0 W/m² | - |
| 1787862255 | 19.44° C | 54% | 1016.9 hPa | 0 mm | 0.45 m/s, 77° | 0 W/m² | - |
| 1787862196 | 19.44° C | 54% | 1017.2 hPa | 0 mm | 0.45 m/s, 127° | 0 W/m² | - |
| 1787862135 | 19.44° C | 54% | 1017.3 hPa | 0 mm | 0.45 m/s, 92° | 0 W/m² | - |
| 1787862075 | 19.44° C | 54% | 1017.1 hPa | 0 mm | 0.89 m/s, 94° | 0 W/m² | - |
| 1787862016 | 19.44° C | 54% | 1017.1 hPa | 0 mm | 0.45 m/s, 30° | 0 W/m² | - |
| 1787861955 | 19.44° C | 54% | 1017.2 hPa | 0 mm | 0.45 m/s, 124° | 0 W/m² | - |
| 1787861895 | 19.44° C | 54% | 1017.2 hPa | 0 mm | 0.45 m/s, 132° | 0 W/m² | - |
| 1787861836 | 19.44° C | 54% | 1017.2 hPa | 0 mm | 0.89 m/s, 22° | 0 W/m² | - |
| 1787861776 | 19.44° C | 54% | 1017.2 hPa | 0 mm | 0 m/s | 0 W/m² | - |
| 1787861716 | 19.44° C | 54% | 1017.2 hPa | 0 mm | 0.89 m/s, 28° | 0 W/m² | - |
| 1787861655 | 19.44° C | 55% | 1017.1 hPa | 0 mm | 0 m/s | 0 W/m² | - |
| 1787861595 | 19.44° C | 54% | 1017.1 hPa | 0 mm | 0.45 m/s, 79° | 0 W/m² | - |
| 1787861536 | 19.44° C | 55% | 1017.1 hPa | 0 mm | 0.45 m/s, 64° | 0 W/m² | - |
| 1787861475 | 19.44° C | 55% | 1017.3 hPa | 0 mm | 0.45 m/s, 66° | 0 W/m² | - |
| 1787861416 | 19.44° C | 55% | 1017.1 hPa | 0 mm | 0.45 m/s, 86° | 0 W/m² | - |
| 1787861355 | 19.44° C | 55% | 1017 hPa | 0 mm | 0.89 m/s, 46° | 0 W/m² | - |
| 1787861295 | 19.44° C | 55% | 1017.1 hPa | 0 mm | 0 m/s | 0 W/m² | - |
| 1787861236 | 19.44° C | 55% | 1017.2 hPa | 0 mm | 0 m/s | 0 W/m² | - |
| 1787861175 | 19.44° C | 55% | 1017.3 hPa | 0 mm | 0.45 m/s, 58° | 0 W/m² | - |
| 1787861115 | 18.89° C | 55% | 1017.3 hPa | 0 mm | 0 m/s | 0 W/m² | - |
| 1787861055 | 18.89° C | 55% | 1017.2 hPa | 0 mm | 0.45 m/s, 116° | 0 W/m² | - |
| 1787860996 | 18.89° C | 55% | 1017.3 hPa | 0 mm | 0 m/s | 0 W/m² | - |
* Rain latest hour (hover to see other rain measurements)
** Current wind speed in m/s (hover to see current wind gust speed)